FW0958 Weather Reports


Display with metric or nautical units.
time (UTC)temp
F
wind
direction
speed
MPH
gust
MPH
rain 1hr
in
rain 24hr
in
rain mn
in
humidity
%
barometer
mb
20260905195253 94 357 1.0 6.0 0.00 0.00 0.00 30 1012.8
20260905194753 93 324 2.0 7.0 0.00 0.00 0.00 32 1012.8
20260905194252 92 313 1.0 7.0 0.00 0.00 0.00 33 1012.8
20260905193752 92 29 0.0 5.0 0.00 0.00 0.00 33 1012.9
20260905193252 91 321 1.0 5.0 0.00 0.00 0.00 34 1013.0
20260905192756 89 356 2.0 6.0 0.00 0.00 0.00 36 1013.3
20260905192752 90 359 2.0 6.0 0.00 0.00 0.00 35 1013.1
20260905191756 89 355 0.0 0.0 0.00 0.00 0.00 38 1013.5
20260905191752 89 336 0.0 6.0 0.00 0.00 0.00 37 1013.4
20260905190751 88 277 0.0 0.0 0.00 0.00 0.00 36 1013.4
20260905190251 88 294 0.0 0.0 0.00 0.00 0.00 37 1013.5
20260905185751 88 312 0.0 0.0 0.00 0.00 0.00 37 1013.4
20260905185248 88 294 0.0 0.0 0.00 0.00 0.00 36 1013.4
20260905184748 88 308 0.0 0.0 0.00 0.00 0.00 36 1013.4
20260905184248 87 308 0.0 0.0 0.00 0.00 0.00 35 1013.4
20260905183748 87 234 0.0 0.0 0.00 0.00 0.00 34 1013.4
20260905183248 87 234 0.0 0.0 0.00 0.00 0.00 35 1013.6
20260905182748 87 234 0.0 0.0 0.00 0.00 0.00 33 1013.6
20260905182251 87 230 0.0 0.0 0.00 0.00 0.00 32 1013.6
20260905181748 87 249 0.0 0.0 0.00 0.00 0.00 33 1013.7
20260905181248 86 243 0.0 0.0 0.00 0.00 0.00 33 1013.7
20260905180749 85 243 0.0 0.0 0.00 0.00 0.00 35 1013.8
20260905180249 85 243 0.0 0.0 0.00 0.00 0.00 37 1013.8
20260905175746 84 245 0.0 0.0 0.00 0.00 0.00 38 1013.8
20260905175247 84 245 0.0 0.0 0.00 0.00 0.00 39 1013.9
20260905174746 83 239 0.0 0.0 0.00 0.00 0.00 40 1013.9
20260905174248 82 299 0.0 0.0 0.00 0.00 0.00 41 1013.9
20260905173748 82 329 0.0 0.0 0.00 0.00 0.00 42 1013.9
20260905173246 81 329 0.0 3.0 0.00 0.00 0.00 42 1013.8
20260905172749 80 330 0.0 3.0 0.00 0.00 0.00 43 1013.8
20260905172248 79 336 0.0 2.0 0.00 0.00 0.00 45 1013.8
20260905171751 77 339 0.0 0.0 0.00 0.00 0.00 46 1013.8
20260905171745 78 339 0.0 0.0 0.00 0.00 0.00 45 1013.8
20260905170744 77 339 0.0 0.0 0.00 0.00 0.00 47 1013.8
20260905170245 77 339 0.0 0.0 0.00 0.00 0.00 48 1013.8
20260905165744 76 339 0.0 0.0 0.00 0.00 0.00 50 1013.8
20260905165245 76 339 0.0 0.0 0.00 0.00 0.00 52 1013.8
20260905164744 75 339 0.0 0.0 0.00 0.00 0.00 53 1013.7
20260905164245 74 339 0.0 0.0 0.00 0.00 0.00 54 1013.6
20260905163744 74 339 0.0 0.0 0.00 0.00 0.00 53 1013.7
20260905163244 73 340 0.0 0.0 0.00 0.00 0.00 55 1013.7
20260905162745 73 341 0.0 0.0 0.00 0.00 0.00 54 1013.7
20260905162242 72 340 0.0 0.0 0.00 0.00 0.00 54 1013.7
20260905161743 72 340 0.0 0.0 0.00 0.00 0.00 56 1013.6
20260905161243 71 340 0.0 0.0 0.00 0.00 0.00 55 1013.8
20260905160743 71 341 0.0 0.0 0.00 0.00 0.00 60 1013.7
20260905160242 70 341 0.0 0.0 0.00 0.00 0.00 59 1013.7
20260905155742 70 341 0.0 0.0 0.00 0.00 0.00 60 1013.8
20260905155242 69 341 0.0 0.0 0.00 0.00 0.00 59 1013.8
20260905154743 69 341 0.0 0.0 0.00 0.00 0.00 60 1013.9
20260905154242 69 341 0.0 0.0 0.00 0.00 0.00 63 1013.8
20260905153742 68 341 0.0 0.0 0.00 0.00 0.00 62 1013.8
20260905153240 67 341 0.0 0.0 0.00 0.00 0.00 64 1013.7
20260905152739 67 341 0.0 0.0 0.00 0.00 0.00 66 1013.8
20260905152240 67 341 0.0 0.0 0.00 0.00 0.00 67 1013.7
20260905151741 67 341 0.0 0.0 0.00 0.00 0.00 67 1013.6
20260905151240 65 341 0.0 0.0 0.00 0.00 0.00 68 1013.7
20260905150740 65 340 0.0 0.0 0.00 0.00 0.00 71 1013.6
20260905150240 64 338 0.0 0.0 0.00 0.00 0.00 74 1013.5
20260905145741 63 338 0.0 0.0 0.00 0.00 0.00 77 1013.6
20260905145242 63 338 0.0 0.0 0.00 0.00 0.00 81 1013.5
20260905145238 63 338 0.0 0.0 0.00 0.00 0.00 84 1013.5
20260905144854 62 338 0.0 0.0 0.00 0.00 0.00 86 1013.4
20260905144357 62 338 0.0 0.0 0.00 0.00 0.00 87 1013.3
20260905143237 61 338 0.0 0.0 0.00 0.00 0.00 87 1013.4
20260905142739 61 338 0.0 0.0 0.00 0.00 0.00 88 1013.2
20260905142239 60 338 0.0 0.0 0.00 0.00 0.00 88 1013.3
20260905141737 60 338 0.0 0.0 0.00 0.00 0.00 89 1013.0
20260905141238 60 338 0.0 0.0 0.00 0.00 0.00 90 1013.1
20260905140738 59 338 0.0 0.0 0.00 0.00 0.00 90 1013.2
20260905140238 59 338 0.0 0.0 0.00 0.00 0.00 90 1013.1
20260905135739 58 338 0.0 0.0 0.00 0.00 0.00 90 1013.1
20260905135239 58 338 0.0 0.0 0.00 0.00 0.00 90 1013.0
20260905134738 57 338 0.0 0.0 0.00 0.00 0.00 89 1013.0
20260905134237 57 338 0.0 0.0 0.00 0.00 0.00 89 1012.8
20260905133739 58 338 0.0 0.0 0.00 0.00 0.00 89 1012.9
20260905133237 58 338 0.0 0.0 0.00 0.00 0.00 89 1012.7
20260905132739 57 338 0.0 0.0 0.00 0.00 0.00 89 1012.7
20260905132237 57 338 0.0 0.0 0.00 0.00 0.00 89 1012.7
20260905131738 58 338 0.0 0.0 0.00 0.00 0.00 89 1012.7
20260905131237 58 338 0.0 0.0 0.00 0.00 0.00 89 1012.7
20260905130738 58 338 0.0 0.0 0.00 0.00 0.00 89 1012.5
20260905130238 57 338 0.0 0.0 0.00 0.00 0.00 89 1012.6
20260905125742 58 338 0.0 0.0 0.00 0.00 0.00 89 1012.6
20260905125737 57 338 0.0 0.0 0.00 0.00 0.00 89 1012.5
20260905125356 58 338 0.0 0.0 0.00 0.00 0.00 89 1012.6
20260905124238 58 338 0.0 0.0 0.00 0.00 0.00 89 1012.5
20260905123739 58 338 0.0 0.0 0.00 0.00 0.00 89 1012.5
20260905123237 58 338 0.0 0.0 0.00 0.00 0.00 89 1012.6
20260905122737 58 338 0.0 0.0 0.00 0.00 0.00 89 1012.6
20260905122238 58 338 0.0 0.0 0.00 0.00 0.00 89 1012.6
20260905121742 58 338 0.0 0.0 0.00 0.00 0.00 89 1012.4
20260905121738 58 338 0.0 0.0 0.00 0.00 0.00 89 1012.3
20260905120735 58 338 0.0 0.0 0.00 0.00 0.00 89 1012.5
20260905120236 58 338 0.0 0.0 0.00 0.00 0.00 89 1012.5
20260905115737 59 338 0.0 0.0 0.00 0.00 0.00 89 1012.3
20260905115235 59 338 0.0 0.0 0.00 0.00 0.00 88 1012.4
20260905114737 59 338 0.0 0.0 0.00 0.00 0.00 89 1012.3
20260905114236 59 338 0.0 0.0 0.00 0.00 0.00 89 1012.3
20260905113740 59 338 0.0 0.0 0.00 0.00 0.00 88 1012.5
20260905113735 59 338 0.0 0.0 0.00 0.00 0.00 88 1012.4
20260905112735 59 338 0.0 0.0 0.00 0.00 0.00 88 1012.5
20260905112239 59 338 0.0 0.0 0.00 0.00 0.00 88 1012.5
20260905112234 59 338 0.0 0.0 0.00 0.00 0.00 88 1012.6
20260905111233 59 338 0.0 0.0 0.00 0.00 0.00 88 1012.5
20260905110733 59 338 0.0 0.0 0.00 0.00 0.00 88 1012.4
20260905110233 59 338 0.0 0.0 0.00 0.00 0.00 88 1012.7
20260905105739 60 338 0.0 0.0 0.00 0.00 0.00 88 1012.7
20260905105733 59 338 0.0 0.0 0.00 0.00 0.00 88 1012.7
20260905105351 60 338 0.0 0.0 0.00 0.00 0.00 88 1012.6
20260905104235 60 338 0.0 0.0 0.00 0.00 0.00 89 1012.7
20260905103733 60 338 0.0 0.0 0.00 0.00 0.00 89 1012.7
20260905103232 60 338 0.0 0.0 0.00 0.00 0.00 88 1012.7
20260905102732 60 338 0.0 0.0 0.00 0.00 0.00 88 1012.6
20260905102232 60 338 0.0 0.0 0.00 0.00 0.00 88 1012.6
20260905101733 60 338 0.0 0.0 0.00 0.00 0.00 88 1012.7
20260905101236 60 338 0.0 0.0 0.00 0.00 0.00 88 1012.8
20260905101231 60 338 0.0 0.0 0.00 0.00 0.00 88 1012.7
20260905100230 60 338 0.0 0.0 0.00 0.00 0.00 88 1012.8
20260905095731 60 338 0.0 0.0 0.00 0.00 0.00 88 1012.7
20260905095232 60 338 0.0 0.0 0.00 0.00 0.00 88 1012.9
20260905094730 61 338 0.0 0.0 0.00 0.00 0.00 88 1012.8
20260905094235 61 338 0.0 0.0 0.00 0.00 0.00 88 1012.8
20260905094229 61 338 0.0 0.0 0.00 0.00 0.00 88 1012.7
20260905093229 61 338 0.0 0.0 0.00 0.00 0.00 88 1012.8
20260905092729 61 338 0.0 0.0 0.00 0.00 0.00 88 1012.8
20260905092231 61 338 0.0 0.0 0.00 0.00 0.00 88 1012.8
20260905091729 61 338 0.0 0.0 0.00 0.00 0.00 87 1012.8
20260905091229 62 338 0.0 0.0 0.00 0.00 0.00 88 1012.8
20260905090730 61 338 0.0 0.0 0.00 0.00 0.00 88 1012.8
20260905090230 62 338 0.0 0.0 0.00 0.00 0.00 88 1012.8
20260905085729 61 338 0.0 0.0 0.00 0.00 0.00 88 1012.8
20260905085232 62 338 0.0 0.0 0.00 0.00 0.00 87 1013.0
20260905085227 62 338 0.0 0.0 0.00 0.00 0.00 88 1012.9
20260905084228 62 338 0.0 0.0 0.00 0.00 0.00 87 1013.1
20260905083729 62 338 0.0 0.0 0.00 0.00 0.00 87 1013.1
20260905083228 62 338 0.0 0.0 0.00 0.00 0.00 88 1013.2
20260905082727 62 338 0.0 0.0 0.00 0.00 0.00 87 1013.2
20260905082228 62 338 0.0 0.0 0.00 0.00 0.00 87 1013.2
20260905081727 63 338 0.0 0.0 0.00 0.00 0.00 87 1013.2
20260905081233 63 338 0.0 0.0 0.00 0.00 0.00 87 1013.3
20260905081228 63 338 0.0 0.0 0.00 0.00 0.00 87 1013.2
20260905080226 63 338 0.0 0.0 0.00 0.00 0.00 87 1013.3
20260905075725 64 338 0.0 0.0 0.00 0.00 0.00 87 1013.4
20260905075224 64 338 0.0 0.0 0.00 0.00 0.00 87 1013.4
20260905074725 64 338 0.0 0.0 0.00 0.00 0.00 87 1013.6
20260905074230 64 338 0.0 0.0 0.00 0.00 0.00 86 1013.7
20260905074225 64 338 0.0 0.0 0.00 0.00 0.00 87 1013.7
20260905073221 64 338 0.0 0.0 0.00 0.00 0.00 86 1013.6
20260905072722 64 338 0.0 0.0 0.00 0.00 0.00 86 1013.7
20260905072221 64 338 0.0 0.0 0.00 0.00 0.00 86 1013.7
20260905071721 64 338 0.0 0.0 0.00 0.00 0.00 86 1013.7
20260905071221 64 338 0.0 0.0 0.00 0.00 0.00 86 1013.6
20260905070721 64 338 0.0 0.0 0.00 0.00 0.00 86 1013.7
20260905070219 64 338 0.0 0.0 0.00 0.00 0.00 86 1013.6
20260905065716 65 338 0.0 0.0 0.00 0.00 0.00 86 1013.5
20260905065217 65 338 0.0 0.0 0.00 0.00 0.00 85 1013.6
20260905064716 65 338 0.0 0.0 0.00 0.00 0.00 86 1013.7
20260905064216 65 338 0.0 0.0 0.00 0.00 0.00 86 1013.7
20260905063724 65 338 0.0 0.0 0.00 0.00 0.00 85 1013.8
20260905063719 65 338 0.0 0.0 0.00 0.00 0.00 85 1013.7
20260905062716 65 338 0.0 0.0 0.00 0.00 0.00 85 1013.6
20260905062214 65 338 0.0 0.0 0.00 0.00 0.00 85 1013.7
20260905061719 65 338 0.0 0.0 0.00 0.00 0.00 84 1013.6
20260905061715 65 338 0.0 0.0 0.00 0.00 0.00 84 1013.6
20260905060715 65 338 0.0 0.0 0.00 0.00 0.00 84 1013.6
20260905060214 65 338 0.0 0.0 0.00 0.00 0.00 84 1013.6
20260905055715 66 338 0.0 0.0 0.00 0.00 0.00 84 1013.6
20260905055220 66 338 0.0 0.0 0.00 0.00 0.00 84 1013.5
20260905055214 66 338 0.0 0.0 0.00 0.00 0.00 84 1013.6
20260905054833 66 338 0.0 0.0 0.00 0.00 0.00 84 1013.6
20260905053712 66 338 0.0 0.0 0.00 0.00 0.00 84 1013.5
20260905053212 66 338 0.0 0.0 0.00 0.00 0.00 84 1013.5
20260905052717 66 338 0.0 0.0 0.00 0.00 0.00 83 1013.4
20260905052712 66 338 0.0 0.0 0.00 0.00 0.00 83 1013.5
20260905052331 66 338 0.0 0.0 0.00 0.00 0.00 83 1013.4
20260905051218 67 338 0.0 0.0 0.00 0.00 0.00 83 1013.2
20260905051212 66 338 0.0 0.0 0.00 0.00 0.00 83 1013.2
20260905050213 67 338 0.0 0.0 0.00 0.00 0.00 83 1013.4
20260905045712 67 338 0.0 0.0 0.00 0.00 0.00 82 1013.3
20260905045213 67 338 0.0 0.0 0.00 0.00 0.00 82 1013.3
20260905044712 67 338 0.0 0.0 0.00 0.00 0.00 82 1013.2
20260905044209 67 338 0.0 0.0 0.00 0.00 0.00 81 1013.2
20260905043710 67 338 0.0 0.0 0.00 0.00 0.00 81 1013.1
20260905043209 67 338 0.0 0.0 0.00 0.00 0.00 81 1013.1
20260905042710 67 338 0.0 0.0 0.00 0.00 0.00 81 1013.0
20260905042210 67 338 0.0 0.0 0.00 0.00 0.00 80 1013.0
20260905041709 68 338 0.0 0.0 0.00 0.00 0.00 80 1012.9
20260905041215 68 338 0.0 0.0 0.00 0.00 0.00 80 1012.9
20260905041210 68 338 0.0 0.0 0.00 0.00 0.00 80 1012.9
20260905040211 68 338 0.0 0.0 0.00 0.00 0.00 80 1013.0
20260905035711 68 338 0.0 0.0 0.00 0.00 0.00 79 1012.8
20260905035210 68 338 0.0 0.0 0.00 0.00 0.00 79 1012.8
20260905034711 69 337 0.0 0.0 0.00 0.00 0.00 79 1012.9
20260905034215 69 337 0.0 0.0 0.00 0.00 0.00 79 1012.7
20260905034210 69 337 0.0 0.0 0.00 0.00 0.00 79 1012.8
20260905033217 70 337 0.0 0.0 0.00 0.00 0.00 77 1012.5
20260905033209 69 337 0.0 0.0 0.00 0.00 0.00 78 1012.7
20260905032710 69 337 0.0 0.0 0.00 0.00 0.00 78 1012.7
20260905032210 70 337 0.0 0.0 0.00 0.00 0.00 78 1012.6
20260905031210 70 337 0.0 0.0 0.00 0.00 0.00 76 1012.4
20260905030711 70 337 0.0 0.0 0.00 0.00 0.00 76 1012.3
20260905030209 70 337 0.0 0.0 0.00 0.00 0.00 75 1012.4
20260905025715 70 12 0.0 4.0 0.00 0.00 0.00 73 1012.2
20260905025709 70 12 0.0 0.0 0.00 0.00 0.00 74 1012.3
20260905024710 71 16 1.0 4.0 0.00 0.00 0.00 73 1012.2
20260905024209 71 16 1.0 4.0 0.00 0.00 0.00 72 1012.0
20260905023709 71 16 2.0 4.0 0.00 0.00 0.00 72 1012.1
20260905023209 72 353 2.0 5.0 0.00 0.00 0.00 71 1012.1
20260905022709 72 351 2.0 5.0 0.00 0.00 0.00 71 1012.1
20260905022212 72 351 3.0 6.0 0.00 0.00 0.00 70 1012.2
20260905021712 73 20 2.0 6.0 0.00 0.00 0.00 68 1012.2
20260905021210 73 24 1.0 6.0 0.00 0.00 0.00 67 1012.1
20260905020709 74 328 1.0 3.0 0.00 0.00 0.00 67 1012.2
20260905020211 74 328 2.0 5.0 0.00 0.00 0.00 66 1012.0
20260905015709 74 332 2.0 7.0 0.00 0.00 0.00 66 1012.0
20260905015216 74 323 2.0 7.0 0.00 0.00 0.00 65 1011.9
20260905015213 74 324 2.0 7.0 0.00 0.00 0.00 66 1011.9
20260905014209 75 334 2.0 7.0 0.00 0.00 0.00 64 1011.9
20260905013708 75 314 1.0 6.0 0.00 0.00 0.00 63 1011.8
20260905013208 76 342 1.0 6.0 0.00 0.00 0.00 63 1011.8
20260905012708 76 9 2.0 6.0 0.00 0.00 0.00 61 1011.8
20260905012213 77 354 3.0 5.0 0.00 0.00 0.00 56 1011.8
20260905012208 77 343 3.0 6.0 0.00 0.00 0.00 59 1011.9
20260905011707 77 316 2.0 6.0 0.00 0.00 0.00 57 1011.9
20260905010708 78 2 2.0 8.0 0.00 0.00 0.00 54 1011.9
20260905010208 79 314 2.0 8.0 0.00 0.00 0.00 53 1011.8
20260905005708 79 329 2.0 7.0 0.00 0.00 0.00 53 1011.8
20260905005213 79 320 3.0 8.0 0.00 0.00 0.00 52 1011.9
20260905005207 79 336 2.0 7.0 0.00 0.00 0.00 52 1011.8
20260905004212 80 334 2.0 8.0 0.00 0.00 0.00 52 1011.9
20260905004206 79 16 3.0 8.0 0.00 0.00 0.00 53 1011.9
20260905003206 81 29 2.0 8.0 0.00 0.00 0.00 50 1012.0
20260905002706 81 319 2.0 6.0 0.00 0.00 0.00 49 1012.0
20260905002207 81 322 3.0 9.0 0.00 0.00 0.00 50 1011.9
20260905001705 81 316 3.0 9.0 0.00 0.00 0.00 49 1011.9
20260905001210 82 292 3.0 9.0 0.00 0.00 0.00 48 1011.7
20260905001206 82 7 2.0 7.0 0.00 0.00 0.00 48 1011.8
20260905000211 82 3 3.0 8.0 0.00 0.00 0.00 48 1011.8
20260905000206 82 48 3.0 9.0 0.00 0.00 0.00 48 1011.9
20260904235705 82 347 3.0 8.0 0.00 0.00 0.00 46 1011.9
20260904235324 82 345 3.0 8.0 0.00 0.00 0.00 49 1011.7
20260904234205 82 333 3.0 9.0 0.00 0.00 0.00 48 1011.9
20260904233703 82 326 4.0 11.0 0.00 0.00 0.00 48 1012.0
20260904233202 82 286 4.0 11.0 0.00 0.00 0.00 50 1012.2
20260904232703 83 343 4.0 10.0 0.00 0.00 0.00 50 1012.0
20260904232205 83 344 3.0 10.0 0.00 0.00 0.00 49 1012.0
20260904231704 83 29 4.0 9.0 0.00 0.00 0.00 49 1012.2
20260904231203 83 289 4.0 10.0 0.00 0.00 0.00 49 1012.1
20260904230704 83 0 4.0 10.0 0.00 0.00 0.00 49 1012.1
20260904230202 84 47 4.0 10.0 0.00 0.00 0.00 49 1012.1
20260904225704 84 334 5.0 10.0 0.00 0.00 0.00 48 1012.2
20260904225204 84 309 4.0 9.0 0.00 0.00 0.00 50 1012.3
20260904224703 84 322 4.0 9.0 0.00 0.00 0.00 48 1012.2
20260904224202 84 289 4.0 11.0 0.00 0.00 0.00 49 1012.2
20260904223708 85 358 4.0 10.0 0.00 0.00 0.00 51 1012.1
20260904223704 84 272 4.0 11.0 0.00 0.00 0.00 48 1012.2
20260904222703 84 304 4.0 10.0 0.00 0.00 0.00 51 1012.3
20260904222205 84 340 5.0 13.0 0.00 0.00 0.00 52 1012.3
20260904221703 83 1 6.0 13.0 0.00 0.00 0.00 53 1012.2
20260904221202 83 19 4.0 11.0 0.00 0.00 0.00 53 1012.3
20260904220702 84 49 4.0 10.0 0.00 0.00 0.00 52 1012.3
20260904220208 85 284 4.0 11.0 0.00 0.00 0.00 52 1012.4
20260904220203 84 310 4.0 10.0 0.00 0.00 0.00 51 1012.3
20260904215159 84 332 5.0 12.0 0.00 0.00 0.00 51 1012.3
20260904214659 84 343 5.0 12.0 0.00 0.00 0.00 52 1012.4
20260904214204 85 336 5.0 12.0 0.00 0.00 0.00 51 1012.3
20260904214200 85 39 5.0 11.0 0.00 0.00 0.00 51 1012.5
20260904213158 86 293 5.0 12.0 0.00 0.00 0.00 50 1012.5
20260904212702 86 7 4.0 11.0 0.00 0.00 0.00 51 1012.5
20260904212657 86 297 4.0 9.0 0.00 0.00 0.00 50 1012.5
20260904211702 85 353 5.0 12.0 0.00 0.00 0.00 53 1012.5
20260904211658 86 309 5.0 11.0 0.00 0.00 0.00 50 1012.5
20260904211318 84 39 5.0 12.0 0.00 0.00 0.00 52 1012.6
20260904210157 85 64 4.0 12.0 0.00 0.00 0.00 52 1012.4
20260904205702 85 305 4.0 9.0 0.00 0.00 0.00 52 1012.6
20260904205657 85 295 4.0 12.0 0.00 0.00 0.00 52 1012.6
20260904204658 86 311 4.0 12.0 0.00 0.00 0.00 52 1012.6
20260904204157 85 17 5.0 12.0 0.00 0.00 0.00 52 1012.6
20260904203656 85 290 5.0 11.0 0.00 0.00 0.00 52 1012.5
20260904203157 85 345 5.0 11.0 0.00 0.00 0.00 52 1012.5
20260904202656 85 291 6.0 12.0 0.00 0.00 0.00 52 1012.4
20260904202202 85 331 5.0 13.0 0.00 0.00 0.00 52 1012.5
20260904202157 84 314 6.0 13.0 0.00 0.00 0.00 54 1012.5
20260904201157 86 6 4.0 10.0 0.00 0.00 0.00 50 1012.5
20260904200702 86 326 3.0 10.0 0.00 0.00 0.00 50 1012.7
20260904200657 86 34 3.0 10.0 0.00 0.00 0.00 50 1012.5
20260904200317 86 304 4.0 11.0 0.00 0.00 0.00 50 1012.7